Find Starlink 5047

NORAD ID: 55409 Int'l Des: 2023-014 Owner: SPXS Country: US Constellation: starlink decayed
LEOCIRCULAR

Re-entered — Apr 11, 2025

3D地球を読み込み中...

About Starlink 5047

Starlink 5047 (NORAD 55409) is a starlink constellation satellite (v1.5) launched Jan 31, 2023 by SPXS of US. It re-entered the atmosphere on Apr 11, 2025. with a mass of 305.00 kg.

Starlink 5047について

説明を読み込み中...

高度履歴

Loading altitude history...

軌道要素

1 55409U 23014U 25101.52286463 .10426489 44261-5 30314-3 0 9998
2 55409 69.9897 167.8033 0010964 259.1911 231.2457 16.44347078121708
Epoch: Apr 11, 2025 • Age: 11013 hours

現在のステータス

Position data unavailable
打ち上げ日 Jan 31, 2023
運用期間 3.4 years
落下予定日 Apr 11, 2025
タイプ internet

技術仕様

分類 Payload
質量 305.00 kg
乾燥質量 290.00 kg
総質量 305.00 kg
長さ 0.20 m
直径 2.80 m
スパン 9.00 m
形状 Box + pan
製造者 SPXS
バスタイプ Starlink
フェーズステータス Reentered
所有者/国 SPXS/US

Most Searched